Regional Weather Roundup
Issued by NWS

Home | Current Version | Previous Version | Text Only | Print | Product List | Glossary On
Versions: 1 2 3 4 5 6 7 8 9 10 11 12 13 14 15 16 17 18 19 20 21 22 23 24 25 26 27 28 29 30 31 32 33 34 35 36 37 38 39 40 41 42 43 44 45 46 47 48 49 50
000
ASUS44 KOUN 120310
RWROK

WEATHER ROUNDUP FOR OKLAHOMA
NATIONAL WEATHER SERVICE NORMAN OK
1000 PM CDT FRI JUL 11 2014

NOTE: "FAIR" INDICATES FEW OR NO CLOUDS BELOW 12,000 FEET WITH NO
      SIGNIFICANT WEATHER AND/OR OBSTRUCTIONS TO VISIBILITY.

OKZ001>007-009>012-014-015-017-120400-
NORTHWEST OKLAHOMA AND THE PANHANDLE

CITY           SKY/WX    TMP DP  RH WIND       PRES   REMARKS
GAGE           CLEAR     79  60  52 S8        30.05R
ENID/VANCE AFB CLEAR     83  63  50 S12       30.05R
ENID/WOODRING  CLEAR     75  64  69 SE7       30.04R
$$

OKZ016-021>023-033>039-044-045-120400-
SOUTHWEST OKLAHOMA

CITY           SKY/WX    TMP DP  RH WIND       PRES   REMARKS
LAWTON/REGL    CLEAR     87  57  35 S12       30.05R
LAWTON/FT SILL CLEAR     86  59  39 S14G21    30.05R
FREDERICK      PTCLDY    87  61  41 S12       30.02R
CLINTON        CLEAR     84  58  40 S10       30.08R
HOBART         PTCLDY    86  60  41 S16       30.05R
ALTUS AFB      PTCLDY    86  64  47 S10       30.05R
$$

OKZ018>020-024>031-120400-
CENTRAL OKLAHOMA

CITY           SKY/WX    TMP DP  RH WIND       PRES   REMARKS
OKLAHOMA CITY  CLEAR     80  63  55 S9        30.07R
OKC/WILEY POST CLEAR     85  62  46 S13       30.06R
OKC/TINKER AFB CLEAR     79  65  61 S10       30.07R
STILLWATER     CLEAR     82  61  48 SE10      30.05R
GUTHRIE        CLEAR     84  59  42 S7        30.06R
$$

OKZ008-013-054>072-120400-
NORTHEAST OKLAHOMA

CITY           SKY/WX    TMP DP  RH WIND       PRES   REMARKS
TULSA          CLEAR     85  69  58 S9        30.06R
TULSA/JONES    CLEAR     79  71  76 CALM      30.07R
PONCA CITY     CLEAR     85  63  47 S6        30.04R
BARTLESVILLE   CLEAR     76  72  87 S3        30.06R
MUSKOGEE       CLEAR     80  72  76 SE3       30.09R
$$

OKZ032-040>043-046>053-073>077-120400-
SOUTH CENTRAL/SOUTHEAST OKLAHOMA

CITY           SKY/WX    TMP DP  RH WIND       PRES   REMARKS
ARDMORE/DWNTWN CLEAR     81  59  47 CALM      30.09R
MCALESTER      CLEAR     81  67  62 SE5       30.10R
$$




USA.gov is the U.S. government's official web portal to all federal, state and local government web resources and services.